User: anonymous   Login
Location: Altleiningen
(49.5078°N, 8.0741°E)
Time: 15:49:46
(UTC+00:00)
Language:

SJ-6B - Orbit

View from above orbital plane
View from above orbital plane
View from above satellite
View from above satellite

Ground track
Ground track

The orbit data is extracted from the following two-line orbital elements,

1 28415U 04035C   21132.11649051  .00000332  00000-0  25815-4 0  9991
2 28415  97.5684 175.2560 0050021 312.5392  47.1617 15.07104042913137
Epoch (UTC): 12 May 2021 02:47:44
Eccentricity: 0.0050021
inclination: 97.5684°
perigee height: 510 km
apogee height: 579 km
right ascension of ascending node: 175.2560°
argument of perigee: 312.5392°
revolutions per day: 15.07104042
mean anomaly at epoch: 47.1617°
orbit number at epoch: 91313

The dashed part of the orbit path shows where the satellite is in the earth's shadow,  

DLR